EW4725 Weather Reports


time (UTC)temp
C
wind
direction
speed
KPH
gust
KPH
rain 1hr
cm
rain 24hr
cm
rain mn
cm
humidity
%
barometer
mb
20260905055417 20 0.0 0.0 0.00 0.00 0.00 87 1013.0
20260905054917 20 260 1.6 3.2 0.00 0.00 0.00 87 1012.9
20260905054417 20 0.0 0.0 0.00 0.00 0.00 87 1012.9
20260905053917 20 305 6.4 8.0 0.00 0.00 0.00 87 1012.8
20260905053417 20 0.0 0.0 0.00 0.00 0.00 87 1012.8
20260905052917 20 283 1.6 4.8 0.00 0.00 0.00 87 1012.8
20260905052417 20 283 1.6 6.4 0.00 0.00 0.00 87 1012.8
20260905051917 20 0.0 3.2 0.00 0.00 0.00 87 1012.8
20260905051417 20 283 1.6 3.2 0.00 0.00 0.00 87 1012.9
20260905050937 20 0.0 1.6 0.00 0.00 0.00 86 1012.9
20260905050417 20 283 1.6 4.8 0.00 0.00 0.00 87 1013.0
20260905045917 20 260 4.8 8.0 0.00 0.00 0.00 86 1012.9
20260905045437 20 305 3.2 4.8 0.00 0.00 0.00 86 1012.9
20260905044937 20 260 1.6 3.2 0.00 0.00 0.00 86 1012.8
20260905044417 20 283 3.2 4.8 0.00 0.00 0.00 85 1012.8
20260905043917 20 305 4.8 6.4 0.00 0.00 0.00 85 1012.7
20260905043417 20 283 3.2 4.8 0.00 0.00 0.00 85 1012.7
20260905042917 20 0.0 1.6 0.00 0.00 0.00 84 1012.6
20260905042417 20 260 1.6 3.2 0.00 0.00 0.00 84 1012.5
20260905041917 20 0.0 3.2 0.00 0.00 0.00 84 1012.6
20260905041437 20 0.0 1.6 0.00 0.00 0.00 84 1012.5
20260905040917 20 260 4.8 8.0 0.00 0.00 0.00 84 1012.4
20260905040417 21 260 1.6 3.2 0.00 0.00 0.00 84 1012.3
20260905035937 21 260 3.2 4.8 0.00 0.00 0.00 84 1012.3
20260905035517 21 283 4.8 6.4 0.00 0.00 0.00 83 1012.3
20260905034917 21 283 3.2 6.4 0.00 0.00 0.00 83 1012.1
20260905034417 21 260 3.2 4.8 0.00 0.00 0.00 83 1012.1
20260905033917 21 283 6.4 9.7 0.00 0.00 0.00 83 1012.1
20260905033417 21 260 6.4 9.7 0.00 0.00 0.00 83 1012.0
20260905033017 21 283 6.4 12.9 0.00 0.00 0.00 82 1012.0
20260905032417 21 283 3.2 8.0 0.00 0.00 0.00 82 1012.0
20260905031917 21 283 6.4 11.3 0.00 0.00 0.00 82 1011.9
20260905031437 21 283 6.4 8.0 0.00 0.00 0.00 82 1011.9
20260905030917 21 283 6.4 9.7 0.00 0.00 0.00 81 1011.9
20260905030417 21 260 3.2 3.2 0.00 0.00 0.00 81 1011.8
20260905025917 21 260 8.0 12.9 0.00 0.00 0.00 80 1011.7
20260905025416 21 283 6.4 9.7 0.00 0.00 0.00 80 1011.6
20260905024917 21 283 4.8 8.0 0.00 0.00 0.00 80 1011.6
20260905024416 21 283 6.4 8.0 0.00 0.00 0.00 79 1011.6
20260905023917 21 260 8.0 11.3 0.00 0.00 0.00 79 1011.6
20260905023417 21 283 6.4 11.3 0.00 0.00 0.00 78 1011.7
20260905022917 22 283 8.0 11.3 0.00 0.00 0.00 78 1011.6
20260905022417 22 283 6.4 9.7 0.00 0.00 0.00 77 1011.7
20260905021917 22 305 1.6 3.2 0.00 0.00 0.00 76 1011.7
20260905021417 22 260 4.8 8.0 0.00 0.00 0.00 76 1011.7
20260905020917 22 283 4.8 6.4 0.00 0.00 0.00 75 1011.6
20260905020417 22 260 3.2 6.4 0.00 0.00 0.00 74 1011.6
20260905015917 23 283 6.4 11.3 0.00 0.00 0.00 73 1011.6
20260905015417 23 260 8.0 11.3 0.00 0.00 0.00 72 1011.7
20260905014916 23 260 6.4 9.7 0.00 0.00 0.00 72 1011.7
20260905014417 23 305 3.2 6.4 0.00 0.00 0.00 71 1011.6
20260905013916 23 328 6.4 12.9 0.00 0.00 0.00 70 1011.7
20260905013416 23 305 6.4 9.7 0.00 0.00 0.00 70 1011.7
20260905012937 23 305 6.4 9.7 0.00 0.00 0.00 70 1011.8
20260905012417 24 283 8.0 12.9 0.00 0.00 0.00 69 1011.7
20260905011937 24 305 6.4 9.7 0.00 0.00 0.00 68 1011.8
20260905011417 24 260 6.4 11.3 0.00 0.00 0.00 68 1011.7
20260905010917 25 260 8.0 14.5 0.00 0.00 0.00 68 1011.8
20260905010416 25 260 8.0 14.5 0.00 0.00 0.00 67 1011.8
20260905005917 25 283 6.4 9.7 0.00 0.00 0.00 66 1011.8
20260905005416 25 283 8.0 16.1 0.00 0.00 0.00 64 1011.9
20260905004937 26 283 4.8 9.7 0.00 0.00 0.00 61 1011.8
20260905004437 26 260 3.2 6.4 0.00 0.00 0.00 58 1011.8
20260905003917 25 148 1.6 4.8 0.00 0.00 0.00 57 1011.8
20260905003416 26 170 3.2 8.0 0.00 0.00 0.00 56 1011.9
20260905002916 26 170 1.6 4.8 0.00 0.00 0.00 56 1011.9
20260905002416 26 148 3.2 6.4 0.00 0.00 0.00 55 1011.9
20260905001937 25 283 4.8 9.7 0.00 0.00 0.00 55 1011.8
20260905001437 25 283 6.4 11.3 0.00 0.00 0.00 54 1011.8
20260905000916 25 238 4.8 8.0 0.00 0.00 0.00 55 1011.8
20260905000417 25 193 6.4 9.7 0.00 0.00 0.00 55 1011.9
20260904235937 25 170 4.8 9.7 0.00 0.00 0.00 58 1011.9
20260904235417 25 148 6.4 9.7 0.00 0.00 0.00 57 1012.0
20260904234916 25 215 9.7 14.5 0.00 0.00 0.00 55 1012.1
20260904234436 25 215 4.8 8.0 0.00 0.00 0.00 55 1012.0
20260904233916 26 193 8.0 12.9 0.00 0.00 0.00 54 1012.0
20260904233416 26 148 4.8 9.7 0.00 0.00 0.00 54 1012.0
20260904232937 26 238 6.4 11.3 0.00 0.00 0.00 55 1011.9
20260904232416 26 125 1.6 1.6 0.00 0.00 0.00 54 1011.9
20260904231917 26 148 4.8 9.7 0.00 0.00 0.00 54 1012.0
20260904231416 26 215 4.8 9.7 0.00 0.00 0.00 54 1011.9
20260904230936 26 170 3.2 6.4 0.00 0.00 0.00 54 1012.0
20260904230416 26 148 8.0 11.3 0.00 0.00 0.00 53 1012.0
20260904225916 26 215 3.2 6.4 0.00 0.00 0.00 53 1012.0
20260904225417 26 215 6.4 9.7 0.00 0.00 0.00 53 1012.1
20260904224917 26 215 4.8 8.0 0.00 0.00 0.00 54 1012.1
20260904224416 26 148 3.2 6.4 0.00 0.00 0.00 54 1012.2
20260904223917 26 148 8.0 9.7 0.00 0.00 0.00 53 1012.2
20260904223416 26 148 1.6 6.4 0.00 0.00 0.00 54 1012.2
20260904222916 26 170 8.0 9.7 0.00 0.00 0.00 54 1012.1
20260904222416 26 215 3.2 6.4 0.00 0.00 0.00 55 1012.2
20260904221916 26 283 8.0 12.9 0.00 0.00 0.00 55 1012.2
20260904221436 26 215 8.0 11.3 0.00 0.00 0.00 55 1012.2
20260904220916 26 193 4.8 11.3 0.00 0.00 0.00 57 1012.2
20260904220416 26 238 4.8 8.0 0.00 0.00 0.00 58 1012.3
20260904215936 26 170 6.4 8.0 0.00 0.00 0.00 58 1012.2
20260904215416 26 148 3.2 4.8 0.00 0.00 0.00 57 1012.2
20260904214916 26 125 6.4 12.9 0.00 0.00 0.00 57 1012.3
20260904214416 26 148 4.8 6.4 0.00 0.00 0.00 59 1012.3
20260904213916 26 238 6.4 9.7 0.00 0.00 0.00 59 1012.4
20260904213416 26 125 6.4 11.3 0.00 0.00 0.00 59 1012.4
20260904212916 26 170 4.8 8.0 0.00 0.00 0.00 58 1012.4
20260904212416 26 170 6.4 9.7 0.00 0.00 0.00 58 1012.4
20260904211957 26 170 8.0 12.9 0.00 0.00 0.00 59 1012.4
20260904211416 26 238 8.0 14.5 0.00 0.00 0.00 59 1012.4
20260904210916 26 283 4.8 8.0 0.00 0.00 0.00 59 1012.3
20260904210416 26 260 6.4 9.7 0.00 0.00 0.00 59 1012.4
20260904205916 26 215 8.0 12.9 0.00 0.00 0.00 58 1012.5
20260904205416 26 260 4.8 6.4 0.00 0.00 0.00 60 1012.4
20260904204916 26 170 3.2 6.4 0.00 0.00 0.00 60 1012.5
20260904204416 26 238 8.0 16.1 0.00 0.00 0.00 59 1012.6
20260904203916 26 238 6.4 12.9 0.00 0.00 0.00 59 1012.6
20260904203416 26 148 6.4 11.3 0.00 0.00 0.00 59 1012.6
20260904202916 26 238 8.0 14.5 0.00 0.00 0.00 58 1012.6
20260904202416 26 148 4.8 8.0 0.00 0.00 0.00 59 1012.6
20260904201916 26 125 9.7 11.3 0.00 0.00 0.00 58 1012.8
20260904201416 26 58 1.6 4.8 0.00 0.00 0.00 60 1012.9
20260904200916 25 103 3.2 4.8 0.00 0.00 0.00 61 1012.8
20260904200436 25 125 6.4 9.7 0.00 0.00 0.00 61 1012.9
20260904195916 25 148 6.4 9.7 0.00 0.00 0.00 61 1013.0
20260904195416 25 148 12.9 17.7 0.00 0.00 0.00 61 1013.0
20260904194916 25 125 4.8 9.7 0.00 0.00 0.00 60 1013.0
20260904194416 25 125 4.8 8.0 0.00 0.00 0.00 62 1013.0
20260904193916 25 125 6.4 9.7 0.00 0.00 0.00 60 1013.0
20260904193416 25 148 4.8 8.0 0.00 0.00 0.00 60 1013.2
20260904192916 25 0.0 0.0 0.00 0.00 0.00 62 1013.2
20260904192416 25 125 3.2 4.8 0.00 0.00 0.00 61 1013.2
20260904191916 25 103 3.2 9.7 0.00 0.00 0.00 61 1013.4
20260904191416 25 148 6.4 9.7 0.00 0.00 0.00 64 1013.5
20260904190916 25 148 6.4 8.0 0.00 0.00 0.00 64 1013.6
20260904190416 25 148 3.2 4.8 0.00 0.00 0.00 65 1013.6
20260904185916 25 170 6.4 11.3 0.00 0.00 0.00 66 1013.7
20260904185416 24 238 3.2 4.8 0.00 0.00 0.00 65 1013.8
20260904184916 24 148 9.7 19.3 0.00 0.00 0.00 65 1013.8
20260904184416 25 170 3.2 4.8 0.00 0.00 0.00 64 1013.8
20260904183916 25 125 8.0 16.1 0.00 0.00 0.00 64 1013.8
20260904183416 24 148 6.4 9.7 0.00 0.00 0.00 65 1013.9
20260904182916 25 148 8.0 12.9 0.00 0.00 0.00 64 1013.8
20260904182416 25 148 12.9 22.5 0.00 0.00 0.00 62 1013.9
20260904181956 25 148 3.2 9.7 0.00 0.00 0.00 63 1013.8
20260904181416 25 238 4.8 8.0 0.00 0.00 0.00 64 1013.7
20260904180916 24 215 1.6 3.2 0.00 0.00 0.00 66 1013.8
20260904180416 23 125 6.4 9.7 0.00 0.00 0.00 64 1013.8
20260904175916 23 103 3.2 8.0 0.00 0.00 0.00 64 1013.9
20260904175416 24 125 6.4 9.7 0.00 0.00 0.00 65 1013.9
20260904174916 24 125 6.4 8.0 0.00 0.00 0.00 65 1013.9
20260904174416 24 148 6.4 9.7 0.00 0.00 0.00 65 1013.9
20260904173916 24 215 4.8 9.7 0.00 0.00 0.00 65 1013.9
20260904173416 23 238 6.4 11.3 0.00 0.00 0.00 66 1013.8
20260904172916 23 0.0 1.6 0.00 0.00 0.00 67 1013.8
20260904172416 23 103 3.2 6.4 0.00 0.00 0.00 66 1013.8
20260904171916 23 170 4.8 9.7 0.00 0.00 0.00 67 1013.8
20260904171436 23 148 8.0 12.9 0.00 0.00 0.00 68 1013.8
20260904170936 23 148 1.6 4.8 0.00 0.00 0.00 69 1013.7
20260904170416 23 170 1.6 4.8 0.00 0.00 0.00 68 1013.7
20260904165936 23 148 6.4 12.9 0.00 0.00 0.00 68 1013.7
20260904165416 23 170 3.2 4.8 0.00 0.00 0.00 69 1013.6
20260904164916 22 148 6.4 11.3 0.00 0.00 0.00 71 1013.6
20260904164416 22 125 8.0 11.3 0.00 0.00 0.00 71 1013.5
20260904163916 22 260 3.2 4.8 0.00 0.00 0.00 71 1013.5
20260904163416 22 148 3.2 6.4 0.00 0.00 0.00 71 1013.4
20260904162916 22 0.0 1.6 0.00 0.00 0.00 72 1013.3
20260904162416 22 125 4.8 9.7 0.00 0.00 0.00 71 1013.4
20260904161915 22 125 4.8 6.4 0.00 0.00 0.00 73 1013.3
20260904161416 22 80 3.2 4.8 0.00 0.00 0.00 73 1013.3
20260904160916 22 0.0 1.6 0.00 0.00 0.00 73 1013.3
20260904160416 22 125 6.4 8.0 0.00 0.00 0.00 74 1013.3
20260904155916 22 0.0 1.6 0.00 0.00 0.00 76 1013.1
20260904155415 22 125 1.6 3.2 0.00 0.00 0.00 77 1013.2
20260904154916 21 103 1.6 1.6 0.00 0.00 0.00 77 1013.2
20260904154456 21 0.0 1.6 0.00 0.00 0.00 78 1013.1
20260904153936 21 125 3.2 6.4 0.00 0.00 0.00 78 1013.0
20260904153435 21 58 3.2 4.8 0.00 0.00 0.00 80 1013.1
20260904152936 21 58 4.8 6.4 0.00 0.00 0.00 80 1013.1
20260904152416 20 148 3.2 6.4 0.00 0.00 0.00 81 1013.2
20260904151916 20 103 4.8 6.4 0.00 0.00 0.00 82 1013.2
20260904151420 20 125 6.4 9.7 0.00 0.00 0.00 82 1013.2
20260904150915 20 148 3.2 12.9 0.00 0.00 0.00 82 1013.2
20260904150415 20 125 4.8 8.0 0.00 0.00 0.00 83 1013.1
20260904145916 20 103 4.8 8.0 0.00 0.00 0.00 83 1013.1
20260904145415 20 125 4.8 4.8 0.00 0.00 0.00 84 1013.0
20260904144915 19 103 4.8 6.4 0.00 0.00 0.00 85 1013.0
20260904144416 19 148 4.8 8.0 0.00 0.00 0.00 86 1013.0
20260904143915 18 125 4.8 8.0 0.00 0.00 0.00 86 1012.9
20260904143455 18 80 4.8 6.4 0.00 0.00 0.00 87 1012.9
20260904142915 18 80 3.2 8.0 0.00 0.00 0.00 88 1012.9
20260904142415 18 80 1.6 8.0 0.00 0.00 0.00 88 1012.8
20260904141915 18 58 3.2 4.8 0.00 0.00 0.00 89 1012.7
20260904141416 18 58 3.2 4.8 0.00 0.00 0.00 89 1012.7
20260904140916 17 0.0 1.6 0.00 0.00 0.00 89 1012.6
20260904140435 17 0.0 1.6 0.00 0.00 0.00 89 1012.6
20260904135915 17 125 1.6 3.2 0.00 0.00 0.00 89 1012.5
20260904135416 17 0.0 1.6 0.00 0.00 0.00 89 1012.4
20260904134915 17 0.0 0.0 0.00 0.00 0.00 89 1012.4
20260904134436 17 0.0 1.6 0.00 0.00 0.00 89 1012.4
20260904133915 17 125 1.6 4.8 0.00 0.00 0.00 89 1012.4
20260904133415 17 125 1.6 3.2 0.00 0.00 0.00 89 1012.4
20260904132936 17 0.0 0.0 0.00 0.00 0.00 89 1012.4
20260904132415 17 125 3.2 4.8 0.00 0.00 0.00 90 1012.4
20260904131935 17 0.0 1.6 0.00 0.00 0.00 90 1012.4
20260904131416 17 0.0 1.6 0.00 0.00 0.00 90 1012.5
20260904130915 17 103 1.6 1.6 0.00 0.00 0.00 89 1012.4
20260904130415 17 80 1.6 1.6 0.00 0.00 0.00 90 1012.4
20260904125915 17 80 1.6 3.2 0.00 0.00 0.00 90 1012.3
20260904125415 17 80 1.6 3.2 0.00 0.00 0.00 90 1012.3
20260904124915 17 80 1.6 3.2 0.00 0.00 0.00 90 1012.2
20260904124415 17 0.0 3.2 0.00 0.00 0.00 90 1012.2
20260904123915 17 125 1.6 3.2 0.00 0.00 0.00 90 1012.2
20260904123416 17 0.0 0.0 0.00 0.00 0.00 90 1012.0
20260904122915 17 0.0 1.6 0.00 0.00 0.00 90 1012.1
20260904122415 17 0.0 1.6 0.00 0.00 0.00 90 1012.0
20260904121915 17 0.0 1.6 0.00 0.00 0.00 90 1012.0
20260904121415 17 125 3.2 6.4 0.00 0.00 0.00 90 1012.0
20260904120915 17 0.0 0.0 0.00 0.00 0.00 90 1012.0
20260904120416 17 0.0 1.6 0.00 0.00 0.00 90 1011.9
20260904115915 17 0.0 0.0 0.00 0.00 0.00 90 1012.0
20260904115415 18 0.0 0.0 0.00 0.00 0.00 90 1012.1
20260904114935 18 125 1.6 3.2 0.00 0.00 0.00 90 1012.1
20260904114415 18 125 3.2 3.2 0.00 0.00 0.00 90 1012.0
20260904113915 18 0.0 1.6 0.00 0.00 0.00 90 1012.0
20260904113435 18 0.0 1.6 0.00 0.00 0.00 90 1012.0
20260904113015 18 0.0 0.0 0.00 0.00 0.00 90 1012.0
20260904112455 18 125 1.6 1.6 0.00 0.00 0.00 90 1012.0
20260904111915 18 0.0 1.6 0.00 0.00 0.00 90 1012.0
20260904111417 18 0.0 0.0 0.00 0.00 0.00 90 1012.0
20260904110938 18 0.0 0.0 0.00 0.00 0.00 90 1012.0
20260904110417 18 0.0 0.0 0.00 0.00 0.00 90 1012.0
20260904105915 18 0.0 0.0 0.00 0.00 0.00 90 1012.0
20260904105417 18 0.0 0.0 0.00 0.00 0.00 90 1012.0
20260904104917 18 0.0 0.0 0.00 0.00 0.00 90 1012.0
20260904104437 18 0.0 0.0 0.00 0.00 0.00 90 1012.0
20260904103935 18 0.0 0.0 0.00 0.00 0.00 90 1012.0
20260904103417 18 0.0 0.0 0.00 0.00 0.00 90 1012.0
20260904102917 18 0.0 0.0 0.00 0.00 0.00 90 1012.0
20260904102417 18 0.0 1.6 0.00 0.00 0.00 90 1011.9
20260904101917 18 0.0 0.0 0.00 0.00 0.00 90 1011.9
20260904101417 18 0.0 0.0 0.00 0.00 0.00 90 1011.9
20260904100937 18 0.0 0.0 0.00 0.00 0.00 90 1011.9
20260904100417 18 0.0 0.0 0.00 0.00 0.00 90 1011.9
20260904095917 18 0.0 0.0 0.00 0.00 0.00 91 1011.9
20260904095457 18 0.0 0.0 0.00 0.00 0.00 91 1011.9
20260904094917 18 0.0 0.0 0.00 0.00 0.00 90 1012.0
20260904094417 18 0.0 0.0 0.00 0.00 0.00 91 1011.9
20260904093917 18 0.0 0.0 0.00 0.00 0.00 91 1012.0
20260904093417 17 0.0 0.0 0.00 0.00 0.00 91 1012.0
20260904092917 18 0.0 0.0 0.00 0.00 0.00 91 1012.0
20260904092417 18 0.0 0.0 0.00 0.00 0.00 91 1011.9
20260904091917 18 0.0 0.0 0.00 0.00 0.00 92 1012.0
20260904091417 17 0.0 0.0 0.00 0.00 0.00 92 1012.0
20260904090917 17 0.0 0.0 0.00 0.00 0.00 92 1012.0
20260904090417 17 0.0 0.0 0.00 0.00 0.00 92 1011.9
20260904085917 17 0.0 0.0 0.00 0.00 0.00 92 1011.9
20260904085417 17 0.0 0.0 0.00 0.00 0.00 92 1012.0
20260904084917 17 0.0 0.0 0.00 0.00 0.00 91 1012.0
20260904084417 17 0.0 0.0 0.00 0.00 0.00 92 1012.1
20260904083917 17 0.0 0.0 0.00 0.00 0.00 91 1012.1
20260904083417 17 0.0 0.0 0.00 0.00 0.00 91 1012.1
20260904082917 17 0.0 0.0 0.00 0.00 0.00 91 1012.1
20260904082417 17 0.0 0.0 0.00 0.00 0.00 92 1012.1
20260904081917 17 0.0 0.0 0.00 0.00 0.00 91 1012.2
20260904081417 17 0.0 0.0 0.00 0.00 0.00 91 1012.1
20260904080917 17 0.0 0.0 0.00 0.00 0.00 90 1012.1
20260904080417 17 0.0 0.0 0.00 0.00 0.00 91 1012.1
20260904075917 17 0.0 0.0 0.00 0.00 0.00 91 1012.2
20260904075437 17 0.0 0.0 0.00 0.00 0.00 91 1012.1
20260904074917 17 0.0 0.0 0.00 0.00 0.00 91 1012.2
20260904074417 17 0.0 0.0 0.00 0.00 0.00 91 1012.2
20260904073917 17 0.0 0.0 0.00 0.00 0.00 90 1012.1
20260904073417 17 0.0 0.0 0.00 0.00 0.00 90 1012.1
20260904072937 17 0.0 0.0 0.00 0.00 0.00 90 1012.1
20260904072417 18 0.0 0.0 0.00 0.00 0.00 90 1012.2
20260904071937 18 0.0 0.0 0.00 0.00 0.00 90 1012.2
20260904071417 18 0.0 0.0 0.00 0.00 0.00 90 1012.1
20260904070917 18 0.0 0.0 0.00 0.00 0.00 90 1012.1
20260904070417 18 0.0 0.0 0.00 0.00 0.00 90 1012.2
20260904065915 18 0.0 0.0 0.00 0.00 0.00 90 1012.1
20260904065435 18 0.0 0.0 0.00 0.00 0.00 89 1012.1
20260904064935 18 0.0 0.0 0.00 0.00 0.00 88 1012.0
20260904064415 18 0.0 0.0 0.00 0.00 0.00 88 1012.0
20260904063935 18 0.0 0.0 0.00 0.00 0.00 88 1012.1
20260904063415 18 0.0 0.0 0.00 0.00 0.00 88 1012.1
20260904062935 18 0.0 0.0 0.00 0.00 0.00 88 1012.1
20260904062415 18 0.0 0.0 0.00 0.00 0.00 88 1012.1
20260904061919 18 0.0 0.0 0.00 0.00 0.00 87 1012.0
20260904061415 18 0.0 0.0 0.00 0.00 0.00 87 1012.0
20260904060917 19 0.0 0.0 0.00 0.00 0.00 87 1012.0
20260904060417 19 0.0 0.0 0.00 0.00 0.00 86 1011.9
20260904055937 19 0.0 0.0 0.00 0.00 0.00 86 1011.9